1381536026774,0.908361
1381536086774,0.915850
1381536146774,0.910118
1381536206774,0.910701
1381536266775,0.915293
1381536326775,0.909453
1381536386775,0.917337
1381536446775,0.900517
1381536506775,0.907628
1381536566775,0.917776
1381536626775,0.911983
1381536686775,0.908389
1381536746775,0.908602
1381536806775,0.902410
1381536866775,0.913634
1381536926775,0.907733
1381536986775,0.909313
1381537046775,0.913813
1381537106775,0.908823
1381537166775,0.914756
1381537226774,0.905807
1381537286774,0.916285
1381537346774,0.907426
1381537406774,0.902922
1381537466774,0.909557
1381537526774,0.908614
1381537586775,0.903051
1381537646775,0.902127
1381537706775,0.899733
1381537766775,0.905705
1381537826775,0.898412
1381537886775,0.908579
1381537946775,0.903204
1381538006775,0.900177
1381538066775,0.893152
1381538126775,0.900587
1381538186775,0.906112
1381538246775,0.897189
1381538306775,0.898574
1381538366775,0.892755
1381538426775,0.900648
1381538486775,0.897425
1381538546775,0.898794
1381538606774,0.891902
1381538666774,0.902179
1381538726774,0.902275
1381538786774,0.897129
1381538846774,0.906299
1381538906774,0.915356
1381538966775,0.920965
1381539026775,0.924352
1381539086775,0.933842
1381539146775,0.939969
1381539206775,0.937075
1381539266775,0.941058
1381539326775,0.940805
1381539386775,0.949404
1381539446775,0.943605
1381539506775,0.944789
1381539566775,0.932518
1381539626785,0.938299
1381539686785,0.940178
1381539746785,0.949687
1381539806785,0.937129
1381539866785,0.926818
1381539926785,0.919255
1381539986785,0.923237
1381540046785,0.921198
1381540106785,0.917357
1381540166785,0.912751
1381540226785,0.903242
1381540286785,0.906955
1381540346785,0.904998
1381540406785,0.910862
1381540466785,0.905328
1381540526785,0.903028
1381540586785,0.910496
1381540646785,0.904363
1381540706785,0.894352
1381540766785,0.909225
1381540826785,0.900830
1381540886785,0.910239
1381540946785,0.900204
1381541006785,0.892182
1381541066785,0.897935
1381541126785,0.905385
1381541186785,0.904731
1381541246785,0.908643
1381541306785,0.901569
1381541366785,0.904185
1381541426785,0.908149
1381541486785,0.909324
1381541546785,0.909423
1381541606785,0.907094
1381541666785,0.903811
1381541726785,0.904739
1381541786785,0.896739
1381541846785,0.905944
1381541906785,0.902356
1381541966785,0.903219
1381542026785,0.903308
1381542086785,0.902117
1381542146785,0.897057
1381542206785,0.903984
1381542266785,0.901525
1381542326785,0.897709
1381542386785,0.900852
1381542446785,0.894255
1381542506785,0.896087
1381542566785,0.888303
1381542626785,0.892027
1381542686785,0.898689
1381542746785,0.898969
1381542806785,0.900063
1381542866785,0.896457
1381542926785,0.899816
1381542986785,0.908179
1381543046785,0.922294
1381543106785,0.949152
1381543166785,0.964235
1381543226795,0.974868
1381543286795,0.991539
1381543346795,0.985415
1381543406795,0.974548
1381543466795,0.961304
1381543526795,0.952380
1381543586795,0.946511
1381543646795,0.948637
1381543706795,0.946714
1381543766795,0.941667
1381543826795,0.945360
1381543886795,0.944590
1381543946795,0.938601
1381544006795,0.936613
1381544066795,0.928364
1381544126795,0.939252
1381544186795,0.934912
1381544246795,0.928812
1381544306795,0.943512
1381544366795,0.939096
1381544426795,0.934323
1381544486795,0.931114
1381544546795,0.925541
1381544606795,0.924078
1381544666795,0.928840
1381544726795,0.936679
1381544786795,0.926340
1381544846795,0.925699
1381544906795,0.927141
1381544966795,0.937454
1381545026795,0.929304
1381545086795,0.928843
1381545146795,0.929560
1381545206795,0.922467
1381545266795,0.918687
1381545326795,0.926194
1381545386795,0.923480
1381545446795,0.926418
1381545506795,0.923986
1381545566795,0.922070
1381545626795,0.912763
1381545686795,0.932928
1381545746795,0.937715
1381545806795,0.930516
1381545866795,0.930925
1381545926795,0.939696
1381545986795,0.929224
1381546046795,0.930308
1381546106795,0.926438
1381546166795,0.928260
1381546226795,0.926617
1381546286795,0.923384
1381546346795,0.926873
1381546406795,0.925063
1381546466795,0.924034
1381546526795,0.919985
1381546586795,0.935474
1381546646795,0.917234
1381546706795,0.930796
1381546766795,0.921776
1381546826804,0.930122
1381546886804,0.919115
1381546946804,0.924014
1381547006804,0.929631
1381547066804,0.928988
1381547126804,0.938783
1381547186804,0.936284
1381547246804,0.938965
1381547306804,0.930616
1381547366804,0.927400
1381547426804,0.930905
1381547486804,0.928493
1381547546804,0.921976
1381547606804,0.932537
1381547666804,0.929866
1381547726804,0.924886
1381547786804,0.931587
1381547846804,0.925178
1381547906804,0.929397
1381547966804,0.932816
1381548026804,0.934864
1381548086804,0.937472
1381548146804,0.934476
1381548206804,0.944718
1381548266804,0.930456
1381548326804,0.935882
1381548386804,0.928327
1381548446804,0.930118
1381548506804,0.934325
1381548566804,0.934981
1381548626804,0.935440
1381548686804,0.932928
1381548746804,0.934880
1381548806804,0.932632
1381548866804,0.937703
1381548926804,0.930980
1381548986804,0.928764
1381549046804,0.936342
1381549106804,0.930810
1381549166804,0.935707
1381549226804,0.934466
1381549286804,0.943926
1381549346804,0.958847
1381549406804,0.977119
1381549466804,0.992335
1381549526804,1.01479
1381549586804,1.03604
1381549646804,1.03944
1381549706804,1.05488
1381549766804,1.06623
1381549826804,1.06365
1381549886804,1.06994
1381549946804,1.07065
1381550006804,1.06878
1381550066804,1.05492
1381550126804,1.04639
1381550186804,1.05077
1381550246804,1.03579
1381550306804,1.03476
1381550366804,1.02777
1381550426814,1.01988
1381550486814,1.02550
1381550546814,1.05015
1381550606814,1.05279
1381550666814,1.05888
1381550726814,1.07775
1381550786814,1.08788
1381550846814,1.09248
1381550906814,1.08800
1381550966814,1.06788
1381551026814,1.07207
1381551086814,1.05974
1381551146814,1.04083
1381551206814,1.03419
1381551266814,1.03064
1381551326814,1.01898
1381551386814,1.02005
1381551446814,1.00694
1381551506814,1.00639
1381551566814,1.00492
1381551626814,1.01038
1381551686814,1.00630
1381551746814,0.992079
1381551806814,1.00125
1381551866814,0.998430
1381551926814,0.994095
1381551986814,0.991382
1381552046814,0.991389
1381552106814,0.999502
1381552166814,0.991419
1381552226814,0.992641
1381552286814,0.978826
1381552346814,0.985087
1381552406814,0.979791
1381552466814,0.981813
1381552526814,0.973050
1381552586814,0.972086
1381552646814,0.968171
1381552706814,0.967636
1381552766814,0.957783
1381552826814,0.957598
1381552886814,0.953428
1381552946814,0.956543
1381553006814,0.952727
1381553066814,0.948981
1381553126814,0.944623
1381553186814,0.939944
1381553246814,0.936261
1381553306814,0.941845
1381553366814,0.938757
1381553426814,0.919785
1381553486814,0.933116
1381553546814,0.928796
1381553606814,0.921721
1381553666814,0.925993
1381553726814,0.921513
1381553786814,0.921663
1381553846814,0.919349
1381553906814,0.914961
1381553966814,0.910466
1381554026824,0.911471
1381554086824,0.917751
1381554146824,0.917252
1381554206824,0.915054
1381554266824,0.899857
1381554326824,0.906529
1381554386824,0.903951
1381554446824,0.902684
1381554506824,0.901956
1381554566824,0.900795
1381554626824,0.903986
1381554686824,0.899588
1381554746824,0.892243
1381554806824,0.903966
1381554866824,0.901586
1381554926824,0.895901
1381554986824,0.902381
1381555046824,0.900673
1381555106824,0.900729
1381555166824,0.900163
1381555226824,0.905997
1381555286824,0.898999
1381555346824,0.898692
1381555406824,0.899302
1381555466824,0.902807
1381555526824,0.896294
1381555586824,0.900372
1381555646824,0.900395
1381555706824,0.893365
1381555766824,0.908673
1381555826824,0.895702
1381555886824,0.892125
1381555946824,0.893669
1381556006824,0.897017
1381556066824,0.901254
1381556126824,0.895942
1381556186824,0.895461
1381556246824,0.904826
1381556306824,0.891586
1381556366824,0.890436
1381556426824,0.899940
1381556486824,0.895263
1381556546824,0.901185
1381556606824,0.897328
1381556666824,0.897403
1381556726824,0.898382
1381556786824,0.895698
1381556846824,0.895853
1381556906824,0.899806
1381556966824,0.899157
1381557026824,0.896923
1381557086824,0.896636
1381557146824,0.902820
1381557206824,0.908818
1381557266824,0.901245
1381557326824,0.909353
1381557386824,0.908766
1381557446824,0.906145
1381557506824,0.906032
1381557566824,0.918731
1381557626834,0.906415
1381557686834,0.913978
1381557746834,0.919661
1381557806834,0.922432
1381557866834,0.922547
1381557926834,0.915083
1381557986834,0.924593
1381558046834,0.910609
1381558106834,0.922398
1381558166834,0.925735
1381558226834,0.924364
1381558286834,0.921587
1381558346834,0.922273
1381558406834,0.922999
1381558466834,0.921819
1381558526834,0.922327
1381558586834,0.912400
1381558646834,0.915750
1381558706834,0.918232
1381558766834,0.912040
1381558826834,0.918427
1381558886834,0.902547
1381558946834,0.904692
1381559006834,0.906882
1381559066834,0.910079
1381559126834,0.911734
1381559186834,0.916739
1381559246834,0.921719
1381559306834,0.935716
1381559366834,0.944317
1381559426834,0.956231
1381559486834,0.954579
1381559546834,0.949670
1381559606834,0.954554
1381559666834,0.945408
1381559726834,0.937668
1381559786834,0.943517
1381559846834,0.948308
1381559906834,0.936408
1381559966834,0.940718
1381560026834,0.936387
1381560086834,0.931647
1381560146834,0.937812
1381560206834,0.927088
1381560266834,0.926612
1381560326834,0.922603
1381560386834,0.923290
1381560446834,0.925378
1381560506834,0.931199
1381560566834,0.934730
1381560626834,0.930360
1381560686834,0.948403
1381560746834,0.929111
1381560806834,0.934588
1381560866834,0.938584
1381560926834,0.945892
1381560986834,0.936278
1381561046834,0.942873
1381561106834,0.934639
1381561166834,0.936287
1381561226844,0.932205
1381561286844,0.936314
1381561346844,0.936059
1381561406844,0.931395
1381561466844,0.921158
1381561526844,0.920774
1381561586844,0.916374
1381561646844,0.914710
1381561706844,0.913166
1381561766844,0.912756
1381561826844,0.919089
1381561886844,0.910687
1381561946844,0.908514
1381562006844,0.908514
1381562066844,0.908628
1381562126844,0.925448
1381562186844,0.907084
1381562246844,0.912834
1381562306844,0.914317
1381562366844,0.909030
1381562426844,0.907683
1381562486844,0.913544
1381562546844,0.909926
1381562606844,0.914012
1381562666844,0.911591
1381562726844,0.905914
1381562786844,0.909660
1381562846844,0.908899
1381562906844,0.909225
1381562966844,0.906754
1381563026844,0.917047
1381563086844,0.910757
1381563146844,0.910104
1381563206844,0.904110
1381563266844,0.922626
1381563326844,0.908076
1381563386844,0.899874
1381563446844,0.905367
1381563506844,0.902255
1381563566844,0.911711
1381563626844,0.902250
1381563686844,0.908576
1381563746844,0.899507
1381563806844,0.902358
1381563866844,0.909228
1381563926844,0.894987
1381563986844,0.889215
1381564046844,0.900192
1381564106844,0.889665
1381564166844,0.891841
1381564226844,0.889180
1381564286844,0.896879
1381564346844,0.900195
1381564406844,0.892312
1381564466844,0.892836
1381564526844,0.889794
1381564586844,0.887509
1381564646844,0.893902
1381564706844,0.884676
1381564766844,0.881879
1381564826854,0.889117
1381564886854,0.885652
1381564946854,0.892253
1381565006854,0.894205
1381565066854,0.886042
1381565126854,0.896476
1381565186854,0.894034
1381565246854,0.885011
1381565306854,0.887910
1381565366854,0.891037
1381565426854,0.889787
1381565486854,0.884091
1381565546854,0.890066
1381565606854,0.890365
1381565666854,0.915305
1381565726854,0.920846
1381565786854,0.931451
1381565846854,0.937665
1381565906854,0.943081
1381565966854,0.937060
1381566026854,0.937708
1381566086854,0.923282
1381566146854,0.921728
1381566206854,0.912311
1381566266854,0.902405
1381566326854,0.892001
1381566386854,0.904927
1381566446854,0.895021
1381566506854,0.891664
1381566566854,0.882439
1381566626854,0.884697
1381566686854,0.886538
1381566746854,0.887861
1381566806854,0.889104
1381566866854,0.893804
1381566926854,0.880120
1381566986854,0.887869
1381567046854,0.893061
1381567106854,0.889363
1381567166854,0.887087
1381567226854,0.892693
1381567286854,0.895704
1381567346854,0.884561
1381567406854,0.888595
1381567466854,0.882574
1381567526854,0.886049
1381567586854,0.889421
1381567646854,0.893454
1381567706854,0.892653
1381567766854,0.908937
1381567826854,0.920274
1381567886854,0.939717
1381567946854,0.938620
1381568006854,0.957365
1381568066854,0.954111
1381568126854,0.957165
1381568186854,0.957313
1381568246854,0.940634
1381568306854,0.944307
1381568366854,0.929744
1381568426864,0.931488
1381568486864,0.925066
1381568546864,0.925135
1381568606864,0.918924
1381568666864,0.914992
1381568726864,0.907699
1381568786864,0.909237
1381568846864,0.910220
1381568906864,0.903006
1381568966864,0.902628
1381569026864,0.891662
1381569086864,0.897712
1381569146864,0.903563
1381569206864,0.900434
1381569266864,0.891130
1381569326864,0.899619
1381569386864,0.894996
1381569446864,0.888085
1381569506864,0.890191
1381569566864,0.897080
1381569626864,0.893352
1381569686864,0.895474
1381569746864,0.893067
1381569806864,0.897703
1381569866864,0.889563
1381569926864,0.899419
1381569986864,0.890842
1381570046864,0.899709
1381570106864,0.893214
1381570166864,0.897849
1381570226864,0.891630
1381570286864,0.894724
1381570346864,0.889190
1381570406864,0.892625
1381570466864,0.888945
1381570526864,0.896814
1381570586864,0.903305
1381570646864,0.900022
1381570706864,0.903839
1381570766864,0.915361
1381570826864,0.916508
1381570886864,0.908738
1381570946864,0.917157
1381571006864,0.911170
1381571066864,0.915640
1381571126864,0.919468
1381571186864,0.907889
1381571246864,0.908235
1381571306864,0.903665
1381571366864,0.907335
1381571426864,0.904887
1381571486864,0.907556
1381571546864,0.903857
1381571606864,0.909003
1381571666864,0.906974
1381571726864,0.914873
1381571786864,0.913552
1381571846864,0.918862
1381571906864,0.912442
1381571966864,0.918815
1381572026874,0.914381
1381572086874,0.910121
1381572146874,0.911350
1381572206874,0.908071
1381572266875,0.908886
1381572326875,0.909045
1381572386875,0.911741
1381572446875,0.914832
1381572506875,0.907538
1381572566875,0.915549
1381572626875,0.910498
1381572686874,0.914227
1381572746874,0.908986
1381572806874,0.915255
1381572866874,0.906379
1381572926874,0.916315
1381572986874,0.907205
1381573046874,0.904532
1381573106874,0.913453
1381573166874,0.909589
1381573226874,0.905619
1381573286875,0.904512
1381573346874,0.904560
1381573406874,0.895943
1381573466874,0.900038
1381573526874,0.896724
1381573586875,0.897564
1381573646875,0.895179
1381573706875,0.898386
1381573766875,0.888324
1381573826875,0.890343
1381573886875,0.894764
1381573946875,0.888551
1381574006874,0.895453
1381574066874,0.903204
1381574126874,0.893942
1381574186874,0.905622
1381574246874,0.900358
1381574306874,0.901008
1381574366874,0.899677
1381574426874,0.907477
1381574486874,0.905218
1381574546874,0.908073
1381574606875,0.915882
1381574666875,0.911923
1381574726874,0.914436
1381574786874,0.932010
1381574846874,0.919044
1381574906874,0.906102
1381574966875,0.907726
1381575026875,0.906492
1381575086875,0.899295
1381575146875,0.896333
1381575206875,0.892631
1381575266875,0.895429
1381575326875,0.895921
1381575386874,0.895319
1381575446874,0.898004
1381575506874,0.894602
1381575566874,0.902279
1381575626885,0.898100
1381575686885,0.892800
1381575746885,0.896958
1381575806885,0.905658
1381575866885,0.903195
1381575926885,0.904792
1381575986885,0.903903
1381576046885,0.910413
1381576106885,0.908518
1381576166885,0.906477
1381576226885,0.904874
1381576286885,0.913588
1381576346885,0.906681
1381576406885,0.906673
1381576466885,0.905431
1381576526885,0.911611
1381576586885,0.914725
1381576646885,0.914789
1381576706885,0.911399
1381576766885,0.917738
1381576826885,0.906734
1381576886885,0.919345
1381576946885,0.914336
1381577006885,0.914077
1381577066885,0.913756
1381577126885,0.921128
1381577186885,0.910965
1381577246885,0.916108
1381577306885,0.922999
1381577366885,0.914488
1381577426885,0.917178
1381577486885,0.919100
1381577546885,0.922253
1381577606885,0.912098
1381577666885,0.911979
1381577726885,0.922322
1381577786885,0.926627
1381577846885,0.928280
1381577906885,0.925704
1381577966885,0.926779
1381578026885,0.919168
1381578086885,0.917707
1381578146885,0.918793
1381578206885,0.913946
1381578266885,0.913408
1381578326885,0.921083
1381578386885,0.917090
1381578446885,0.916298
1381578506885,0.922436
1381578566885,0.920525
1381578626885,0.926351
1381578686885,0.924050
1381578746885,0.932394
1381578806885,0.928035
1381578866885,0.924084
1381578926885,0.923572
1381578986885,0.934981
1381579046885,0.933071
1381579106885,0.934139
1381579166885,0.932608
1381579226896,0.929179
1381579286896,0.933255
1381579346896,0.945156
1381579406896,0.945872
1381579466896,0.941210
1381579526896,0.945967
1381579586896,0.946181
1381579646896,0.960119
1381579706896,0.956978
1381579766896,0.953598
1381579826896,0.972067
1381579886896,0.965137
1381579946896,0.976200
1381580006896,0.975561
1381580066896,0.979394
1381580126896,0.996862
1381580186896,0.991935
1381580246896,0.993140
1381580306896,0.999774
1381580366896,0.991265
1381580426896,0.987686
1381580486896,0.999218
1381580546896,0.986070
1381580606896,0.987311
1381580666896,0.988565
1381580726896,0.988717
1381580786896,0.984289
1381580846896,0.973433
1381580906896,0.966326
1381580966896,0.982131
1381581026896,0.967800
1381581086896,0.968435
1381581146896,0.973523
1381581206896,0.963602
1381581266896,0.965004
1381581326896,0.963010
1381581386896,0.960039
1381581446896,0.963741
1381581506896,0.958586
1381581566896,0.953166
1381581626896,0.951360
1381581686896,0.949892
1381581746896,0.945731
1381581806896,0.951729
1381581866896,0.958609
1381581926896,0.960285
1381581986896,0.941271
1381582046896,0.947860
1381582106896,0.946926
1381582166896,0.955818
1381582226896,0.963380
1381582286896,0.959153
1381582346896,0.955905
1381582406896,0.943201
1381582466896,0.959441
1381582526896,0.947840
1381582586896,0.951056
1381582646896,0.947078
1381582706896,0.944386
1381582766896,0.948759
1381582826907,0.946475
1381582886907,0.937909
1381582946907,0.943116
1381583006907,0.937719
1381583066907,0.939845
1381583126907,0.923442
1381583186907,0.927657
1381583246907,0.925312
1381583306907,0.925665
1381583366907,0.927138
1381583426907,0.925669
1381583486907,0.935219
1381583546907,0.925680
1381583606907,0.918318
1381583666907,0.920415
1381583726907,0.920121
1381583786907,0.921008
1381583846907,0.913365
1381583906907,0.912126
1381583966907,0.919222
1381584026907,0.928632
1381584086907,0.906416
1381584146907,0.916515
1381584206907,0.915073
1381584266907,0.909607
1381584326907,0.911422
1381584386907,0.908394
1381584446907,0.912334
1381584506907,0.912484
1381584566907,0.910113
1381584626907,0.913176
1381584686907,0.914905
1381584746907,0.901574
1381584806907,0.917894
1381584866907,0.911379
1381584926907,0.904925
1381584986907,0.910656
1381585046907,0.912178
1381585106907,0.916781
1381585166907,0.908881
1381585226907,0.913716
1381585286907,0.915637
1381585346907,0.921827
1381585406907,0.909399
1381585466907,0.917591
1381585526907,0.918761
1381585586907,0.909905
1381585646907,0.910461
1381585706907,0.900511
1381585766907,0.909894
1381585826907,0.907205
1381585886907,0.906311
1381585946907,0.910911
1381586006907,0.897778
1381586066907,0.909688
1381586126907,0.899430
1381586186907,0.906229
1381586246907,0.894995
1381586306907,0.905800
1381586366907,0.897102
1381586426918,0.905441
1381586486918,0.912807
1381586546918,0.903104
1381586606918,0.904226
1381586666918,0.903310
1381586726918,0.914387
1381586786918,0.907136
1381586846918,0.907538
1381586906918,0.915727
1381586966918,0.913490
1381587026918,0.911344
1381587086918,0.907913
1381587146918,0.910804
1381587206918,0.913426
1381587266918,0.906223
1381587326918,0.907861
1381587386918,0.912872
1381587446918,0.916307
1381587506918,0.912344
1381587566918,0.910182
1381587626918,0.904908
1381587686918,0.908214
1381587746918,0.912311
1381587806918,0.909494
1381587866918,0.908513
1381587926918,0.906382
1381587986918,0.906886
1381588046918,0.901565
1381588106918,0.900796
1381588166918,0.906748
1381588226918,0.907835
1381588286918,0.907386
1381588346918,0.905305
1381588406918,0.903445
1381588466918,0.911715
1381588526918,0.901165
1381588586918,0.909970
1381588646918,0.910035
1381588706918,0.903119
1381588766918,0.901492
1381588826918,0.899654
1381588886918,0.908972
1381588946918,0.897414
1381589006918,0.905222
1381589066918,0.900094
1381589126918,0.904832
1381589186918,0.898909
1381589246918,0.903406
1381589306918,0.896581
1381589366918,0.899938
1381589426918,0.897882
1381589486918,0.899719
1381589546918,0.908092
1381589606918,0.900032
1381589666918,0.903522
1381589726918,0.908756
1381589786918,0.906663
1381589846918,0.909330
1381589906918,0.906758
1381589966918,0.917220
1381590026930,0.915250
1381590086930,0.914111
1381590146930,0.912170
1381590206930,0.904652
1381590266930,0.907523
1381590326930,0.918588
1381590386930,0.913743
1381590446930,0.922863
1381590506930,0.912656
1381590566930,0.909934
1381590626930,0.912550
1381590686930,0.899496
1381590746930,0.904030
1381590806930,0.906317
1381590866930,0.907233
1381590926930,0.914519
1381590986930,0.915496
1381591046930,0.915300
1381591106930,0.907512
1381591166930,0.910256
1381591226930,0.913821
1381591286930,0.907426
1381591346930,0.919171
1381591406930,0.914256
1381591466930,0.906959
1381591526930,0.915864
1381591586930,0.911244
1381591646930,0.917243
1381591706930,0.936884
1381591766930,0.925138
1381591826930,0.927559
1381591886930,0.929073
1381591946930,0.933986
1381592006930,0.927073
1381592066930,0.931660
1381592126930,0.930838
1381592186930,0.931762
1381592246930,0.929661
1381592306930,0.925316
1381592366930,0.923928
1381592426930,0.922877
1381592486930,0.924710
1381592546930,0.924612
1381592606930,0.930393
1381592666930,0.936391
1381592726930,0.932581
1381592786930,0.931153
1381592846930,0.933838
1381592906930,0.934437
1381592966930,0.932898
1381593026930,0.939183
1381593086930,0.932006
1381593146930,0.942598
1381593206930,0.927730
1381593266930,0.934854
1381593326930,0.930809
1381593386930,0.927247
1381593446930,0.939119
1381593506930,0.930850
1381593566930,0.939821
1381593626941,0.935239
1381593686941,0.931136
1381593746941,0.944678
1381593806941,0.940765
1381593866941,0.947880
1381593926941,0.946239
1381593986941,0.937760
1381594046941,0.941276
1381594106941,0.941378
1381594166941,0.935454
1381594226941,0.934964
1381594286941,0.929264
1381594346941,0.933722
1381594406941,0.934303
1381594466941,0.933153
1381594526941,0.932871
1381594586941,0.918077
1381594646941,0.933108
1381594706941,0.926084
1381594766941,0.925050
1381594826941,0.930246
1381594886941,0.932251
1381594946941,0.919943
1381595006941,0.917579
1381595066941,0.917616
1381595126941,0.923091
1381595186941,0.922088
1381595246941,0.924486
1381595306941,0.930738
1381595366941,0.922845
1381595426941,0.922411
1381595486941,0.922491
1381595546941,0.922054
1381595606941,0.920269
1381595666941,0.919631
1381595726941,0.919643
1381595786941,0.921924
1381595846941,0.926587
1381595906941,0.919578
1381595966941,0.921463
1381596026941,0.925008
1381596086941,0.918597
1381596146941,0.922011
1381596206941,0.913799
1381596266941,0.913720
1381596326941,0.919413
1381596386941,0.905168
1381596446941,0.909196
1381596506941,0.914952
1381596566941,0.907264
1381596626941,0.908963
1381596686941,0.910038
1381596746941,0.910647
1381596806941,0.909038
1381596866941,0.913533
1381596926941,0.912228
1381596986941,0.912764
1381597046941,0.912510
1381597106941,0.907317
1381597166941,0.915205
1381597226953,0.905173
1381597286953,0.907318
1381597346953,0.917437
1381597406953,0.909587
1381597466953,0.909925
1381597526953,0.919684
1381597586953,0.915762
1381597646953,0.930484
1381597706953,0.949037
1381597766953,0.945843
1381597826953,0.934588
1381597886953,0.930331
1381597946953,0.940100
1381598006953,0.944555
1381598066953,0.944494
1381598126953,0.943483
1381598186953,0.948927
1381598246953,0.952969
1381598306953,0.940729
1381598366953,0.941296
1381598426953,0.952594
1381598486953,0.950782
1381598546953,0.957637
1381598606953,0.955289
1381598666953,0.949969